Time,TemperatureF,DewpointF,PressureIn,WindDirection,WindDirectionDegrees,WindSpeedMPH,WindSpeedGustMPH,Humidity,HourlyPrecipIn,Conditions,Clouds,dailyrainin,SoftwareType,DateUTC
2013-03-18 00:03:00,56.2,25.1,29.94,ESE,113,1.1,2.5,30,0.00,,,0.00,WUHU216HW,2013-03-18 07:03:00,
2013-03-18 00:13:00,55.8,24.9,29.95,ESE,113,1.1,1.3,30,0.00,,,0.00,WUHU216HW,2013-03-18 07:13:00,
2013-03-18 00:23:00,55.6,24.7,29.94,East,90,0.0,1.1,30,0.00,,,0.00,WUHU216HW,2013-03-18 07:23:00,
2013-03-18 00:33:00,55.1,24.9,29.94,ESE,113,0.4,1.1,31,0.00,,,0.00,WUHU216HW,2013-03-18 07:33:00,
2013-03-18 00:44:00,54.7,24.6,29.95,ESE,113,1.8,2.2,31,0.00,,,0.00,WUHU216HW,2013-03-18 07:44:00,
2013-03-18 00:54:00,54.5,25.1,29.94,ESE,113,2.5,2.5,32,0.00,,,0.00,WUHU216HW,2013-03-18 07:54:00,
2013-03-18 01:04:00,54.7,25.3,29.94,SE,135,1.3,2.9,32,0.00,,,0.00,WUHU216HW,2013-03-18 08:04:00,
2013-03-18 01:14:00,54.7,25.3,29.94,East,90,0.0,1.8,32,0.00,,,0.00,WUHU216HW,2013-03-18 08:14:00,
2013-03-18 01:24:00,54.7,25.3,29.94,ENE,68,0.4,1.3,32,0.00,,,0.00,WUHU216HW,2013-03-18 08:24:00,
2013-03-18 01:34:00,54.4,25.0,29.94,North,0,0.0,1.1,32,0.00,,,0.00,WUHU216HW,2013-03-18 08:34:00,
2013-03-18 01:44:00,53.8,24.6,29.94,SSE,158,0.7,1.1,32,0.00,,,0.00,WUHU216HW,2013-03-18 08:44:00,
2013-03-18 01:54:00,53.3,25.5,29.95,SE,135,0.0,0.9,34,0.00,,,0.00,WUHU216HW,2013-03-18 08:54:00,
2013-03-18 02:04:00,52.7,25.7,29.95,SSE,158,0.4,0.7,35,0.00,,,0.00,WUHU216HW,2013-03-18 09:04:00,
2013-03-18 02:14:00,52.2,25.8,29.95,ESE,113,0.9,0.9,36,0.00,,,0.00,WUHU216HW,2013-03-18 09:14:00,
2013-03-18 02:24:00,51.7,25.4,29.95,SE,135,0.7,0.7,36,0.00,,,0.00,WUHU216HW,2013-03-18 09:24:00,
2013-03-18 02:34:00,51.3,25.0,29.95,SE,135,0.7,1.1,36,0.00,,,0.00,WUHU216HW,2013-03-18 09:34:00,
2013-03-18 02:44:00,50.9,25.4,29.95,ESE,113,0.4,1.3,37,0.00,,,0.00,WUHU216HW,2013-03-18 09:44:00,
2013-03-18 02:54:00,50.8,25.2,29.95,SE,135,2.7,2.7,37,0.00,,,0.00,WUHU216HW,2013-03-18 09:54:00,
2013-03-18 03:04:00,50.8,25.9,29.95,ESE,113,0.7,4.0,38,0.00,,,0.00,WUHU216HW,2013-03-18 10:04:00,
2013-03-18 03:14:00,50.4,25.6,29.95,South,180,0.2,1.6,38,0.00,,,0.00,WUHU216HW,2013-03-18 10:14:00,
2013-03-18 03:25:00,50.6,25.7,29.94,East,90,1.1,1.8,38,0.00,,,0.00,WUHU216HW,2013-03-18 10:25:00,
2013-03-18 03:35:00,50.6,26.5,29.94,SSE,158,1.1,1.8,39,0.00,,,0.00,WUHU216HW,2013-03-18 10:35:00,
2013-03-18 03:45:00,50.4,26.3,29.94,South,180,0.2,1.8,39,0.00,,,0.00,WUHU216HW,2013-03-18 10:45:00,
2013-03-18 03:55:00,50.0,26.6,29.94,East,90,0.4,1.1,40,0.00,,,0.00,WUHU216HW,2013-03-18 10:55:00,
2013-03-18 04:05:00,49.9,26.5,29.93,ESE,113,1.1,1.3,40,0.00,,,0.00,WUHU216HW,2013-03-18 11:05:00,
2013-03-18 04:15:00,49.7,25.7,29.94,SE,135,1.8,2.5,39,0.00,,,0.00,WUHU216HW,2013-03-18 11:15:00,
2013-03-18 04:25:00,49.3,25.3,29.94,East,90,1.1,2.0,39,0.00,,,0.00,WUHU216HW,2013-03-18 11:25:00,
2013-03-18 04:35:00,49.3,26.0,29.94,SE,135,1.8,1.8,40,0.00,,,0.00,WUHU216HW,2013-03-18 11:35:00,
2013-03-18 04:45:00,49.3,26.0,29.95,SSE,158,1.1,1.6,40,0.00,,,0.00,WUHU216HW,2013-03-18 11:45:00,
2013-03-18 04:55:00,49.1,25.8,29.95,South,180,1.6,1.8,40,0.00,,,0.00,WUHU216HW,2013-03-18 11:55:00,
2013-03-18 05:05:00,48.8,25.5,29.95,East,90,2.0,2.0,40,0.00,,,0.00,WUHU216HW,2013-03-18 12:05:00,
2013-03-18 05:16:00,48.6,25.4,29.95,SE,135,2.5,2.5,40,0.00,,,0.00,WUHU216HW,2013-03-18 12:16:00,
2013-03-18 05:26:00,48.8,26.0,29.95,East,90,0.9,2.0,41,0.00,,,0.00,WUHU216HW,2013-03-18 12:26:00,
2013-03-18 05:36:00,49.0,26.7,29.96,SSE,158,0.0,1.1,42,0.00,,,0.00,WUHU216HW,2013-03-18 12:36:00,
2013-03-18 05:46:00,49.1,26.4,29.97,SSW,203,0.2,0.4,41,0.00,,,0.00,WUHU216HW,2013-03-18 12:46:00,
2013-03-18 05:57:00,48.8,26.7,29.97,SSE,158,0.7,1.3,42,0.00,,,0.00,WUHU216HW,2013-03-18 12:57:00,
2013-03-18 06:07:00,48.4,26.8,29.97,ESE,113,2.5,2.7,43,0.00,,,0.00,WUHU216HW,2013-03-18 13:07:00,
2013-03-18 06:17:00,48.2,26.6,29.98,East,90,1.8,2.2,43,0.00,,,0.00,WUHU216HW,2013-03-18 13:17:00,
2013-03-18 06:27:00,48.2,27.2,29.98,ESE,113,2.0,2.7,44,0.00,,,0.00,WUHU216HW,2013-03-18 13:27:00,
2013-03-18 06:37:00,48.6,27.6,29.98,ESE,113,0.0,1.8,44,0.00,,,0.00,WUHU216HW,2013-03-18 13:37:00,
2013-03-18 06:47:00,48.8,27.2,29.98,SSE,158,0.2,0.9,43,0.00,,,0.00,WUHU216HW,2013-03-18 13:47:00,
2013-03-18 06:57:00,49.3,27.6,29.99,South,180,0.0,1.8,43,0.00,,,0.00,WUHU216HW,2013-03-18 13:57:00,
2013-03-18 07:07:00,49.3,27.6,29.99,East,90,0.9,0.9,43,0.00,,,0.00,WUHU216HW,2013-03-18 14:07:00,
2013-03-18 07:17:00,49.7,28.5,29.99,SE,135,0.4,1.3,44,0.00,,,0.00,WUHU216HW,2013-03-18 14:17:00,
2013-03-18 07:27:00,50.2,28.4,30.00,SE,135,0.7,1.6,43,0.00,,,0.00,WUHU216HW,2013-03-18 14:27:00,
2013-03-18 07:37:00,50.9,29.2,30.00,South,180,0.4,0.9,43,0.00,,,0.00,WUHU216HW,2013-03-18 14:37:00,
2013-03-18 07:48:00,51.8,30.0,30.00,North,0,0.0,1.6,43,0.00,,,0.00,WUHU216HW,2013-03-18 14:48:00,
2013-03-18 07:58:00,52.6,31.1,30.01,South,180,0.4,1.1,44,0.00,,,0.00,WUHU216HW,2013-03-18 14:58:00,
2013-03-18 08:08:00,54.0,31.9,30.01,SSW,203,0.9,1.3,43,0.00,,,0.00,WUHU216HW,2013-03-18 15:08:00,
2013-03-18 08:18:00,54.9,32.7,30.01,NE,45,0.0,0.9,43,0.00,,,0.00,WUHU216HW,2013-03-18 15:18:00,
2013-03-18 08:28:00,55.6,32.8,30.01,ENE,68,0.0,0.0,42,0.00,,,0.00,WUHU216HW,2013-03-18 15:28:00,
2013-03-18 08:38:00,56.9,33.4,30.01,SSW,203,0.0,0.0,41,0.00,,,0.00,WUHU216HW,2013-03-18 15:38:00,
2013-03-18 08:48:00,58.3,34.1,30.02,WSW,248,0.0,0.4,40,0.00,,,0.00,WUHU216HW,2013-03-18 15:48:00,
2013-03-18 08:58:00,59.8,34.7,30.01,NNW,338,1.1,1.1,39,0.00,,,0.00,WUHU216HW,2013-03-18 15:58:00,
2013-03-18 09:08:00,61.9,35.2,30.01,WNW,293,2.0,2.5,37,0.00,,,0.00,WUHU216HW,2013-03-18 16:08:00,
2013-03-18 09:18:00,63.5,35.9,30.01,WSW,248,1.8,1.8,36,0.00,,,0.00,WUHU216HW,2013-03-18 16:18:00,
2013-03-18 09:28:00,65.2,35.2,30.01,WNW,293,1.6,2.0,33,0.00,,,0.00,WUHU216HW,2013-03-18 16:28:00,
2013-03-18 09:38:00,66.6,35.7,30.01,West,270,0.2,1.8,32,0.00,,,0.00,WUHU216HW,2013-03-18 16:38:00,
2013-03-18 09:48:00,67.3,36.4,30.01,NNW,338,1.1,2.5,32,0.00,,,0.00,WUHU216HW,2013-03-18 16:48:00,
2013-03-18 09:58:00,68.2,36.4,30.01,NNW,338,2.5,3.1,31,0.00,,,0.00,WUHU216HW,2013-03-18 16:58:00,
2013-03-18 10:08:00,69.1,36.5,30.01,SW,225,1.8,2.5,30,0.00,,,0.00,WUHU216HW,2013-03-18 17:08:00,
2013-03-18 10:19:00,70.2,36.4,30.01,West,270,3.1,3.1,29,0.00,,,0.00,WUHU216HW,2013-03-18 17:19:00,
2013-03-18 10:29:00,71.5,34.5,30.02,SSE,158,1.8,5.8,26,0.00,,,0.00,WUHU216HW,2013-03-18 17:29:00,
2013-03-18 10:39:00,72.0,34.9,30.01,SSE,158,2.0,3.8,26,0.00,,,0.00,WUHU216HW,2013-03-18 17:39:00,
2013-03-18 10:49:00,73.1,33.8,30.01,NNE,23,1.3,4.3,24,0.00,,,0.00,WUHU216HW,2013-03-18 17:49:00,
2013-03-18 10:59:00,73.6,34.2,30.01,SSW,203,4.0,4.5,24,0.00,,,0.00,WUHU216HW,2013-03-18 17:59:00,
2013-03-18 11:09:00,74.5,32.9,30.01,NW,315,1.8,2.7,22,0.00,,,0.00,WUHU216HW,2013-03-18 18:09:00,
2013-03-18 11:19:00,75.1,32.4,30.00,SSW,203,2.7,4.3,21,0.00,,,0.00,WUHU216HW,2013-03-18 18:19:00,
2013-03-18 11:29:00,75.6,32.9,30.00,SE,135,3.8,4.9,21,0.00,,,0.00,WUHU216HW,2013-03-18 18:29:00,
2013-03-18 11:39:00,76.5,33.6,30.00,WSW,248,3.4,4.0,21,0.00,,,0.00,WUHU216HW,2013-03-18 18:39:00,
2013-03-18 11:49:00,76.7,31.0,30.00,SW,225,4.5,4.5,19,0.00,,,0.00,WUHU216HW,2013-03-18 18:49:00,
2013-03-18 11:59:00,77.6,30.1,29.99,WSW,248,4.0,6.5,18,0.00,,,0.00,WUHU216HW,2013-03-18 18:59:00,
2013-03-18 12:09:00,77.9,28.6,29.99,WSW,248,4.5,5.6,17,0.00,,,0.00,WUHU216HW,2013-03-18 19:09:00,
2013-03-18 12:19:00,78.1,27.2,29.99,WSW,248,5.4,5.4,16,0.00,,,0.00,WUHU216HW,2013-03-18 19:19:00,
2013-03-18 12:29:00,78.7,25.9,29.98,SSW,203,6.9,7.6,15,0.00,,,0.00,WUHU216HW,2013-03-18 19:29:00,
2013-03-18 12:39:00,79.0,26.2,29.98,SW,225,2.0,7.6,15,0.00,,,0.00,WUHU216HW,2013-03-18 19:39:00,
2013-03-18 12:49:00,79.0,22.8,29.98,NW,315,4.5,6.9,13,0.00,,,0.00,WUHU216HW,2013-03-18 19:49:00,
2013-03-18 13:00:00,79.6,23.2,29.98,WSW,248,6.0,6.3,13,0.00,,,0.00,WUHU216HW,2013-03-18 20:00:00,
2013-03-18 13:10:00,80.3,22.1,29.97,North,0,1.1,6.9,12,0.00,,,0.00,WUHU216HW,2013-03-18 20:10:00,
2013-03-18 13:20:00,80.3,22.1,29.97,North,0,5.8,5.8,12,0.00,,,0.00,WUHU216HW,2013-03-18 20:20:00,
2013-03-18 13:30:00,79.7,21.7,29.96,North,0,4.0,7.4,12,0.00,,,0.00,WUHU216HW,2013-03-18 20:30:00,
2013-03-18 13:40:00,79.9,21.9,29.96,West,270,4.0,5.4,12,0.00,,,0.00,WUHU216HW,2013-03-18 20:40:00,
2013-03-18 13:50:00,80.1,20.4,29.95,WSW,248,2.5,5.6,11,0.00,,,0.00,WUHU216HW,2013-03-18 20:50:00,
2013-03-18 14:00:00,80.5,22.3,29.95,NNE,23,0.9,6.9,12,0.00,,,0.00,WUHU216HW,2013-03-18 21:00:00,
2013-03-18 14:10:00,80.3,22.1,29.94,SSE,158,4.7,4.7,12,0.00,,,0.00,WUHU216HW,2013-03-18 21:10:00,
2013-03-18 14:20:00,80.6,22.5,29.94,NNW,338,3.1,5.8,12,0.00,,,0.00,WUHU216HW,2013-03-18 21:20:00,
2013-03-18 14:31:00,81.2,24.6,29.94,SW,225,2.5,7.4,13,0.00,,,0.00,WUHU216HW,2013-03-18 21:31:00,
2013-03-18 14:41:00,81.2,22.9,29.94,WNW,293,5.6,6.5,12,0.00,,,0.00,WUHU216HW,2013-03-18 21:41:00,
2013-03-18 14:51:00,81.0,22.8,29.94,West,270,5.6,8.1,12,0.00,,,0.00,WUHU216HW,2013-03-18 21:51:00,
2013-03-18 15:01:00,80.6,22.5,29.93,West,270,2.9,6.9,12,0.00,,,0.00,WUHU216HW,2013-03-18 22:01:00,
2013-03-18 15:11:00,80.6,22.5,29.93,WSW,248,1.3,5.4,12,0.00,,,0.00,WUHU216HW,2013-03-18 22:11:00,
2013-03-18 15:21:00,81.0,22.8,29.93,WSW,248,3.6,4.0,12,0.00,,,0.00,WUHU216HW,2013-03-18 22:21:00,
2013-03-18 15:32:00,81.2,22.9,29.92,WNW,293,6.5,6.5,12,0.00,,,0.00,WUHU216HW,2013-03-18 22:32:00,
2013-03-18 15:42:00,81.0,22.8,29.92,NW,315,2.9,8.5,12,0.00,,,0.00,WUHU216HW,2013-03-18 22:42:00,
2013-03-18 15:52:00,80.6,22.5,29.92,WSW,248,0.9,5.8,12,0.00,,,0.00,WUHU216HW,2013-03-18 22:52:00,
2013-03-18 16:02:00,80.6,22.5,29.92,North,0,4.0,6.7,12,0.00,,,0.00,WUHU216HW,2013-03-18 23:02:00,
2013-03-18 16:12:00,80.8,22.6,29.92,NW,315,4.0,6.9,12,0.00,,,0.00,WUHU216HW,2013-03-18 23:12:00,
2013-03-18 16:22:00,81.2,22.9,29.92,WNW,293,1.8,5.4,12,0.00,,,0.00,WUHU216HW,2013-03-18 23:22:00,
2013-03-18 16:32:00,81.0,22.8,29.92,NW,315,3.4,5.8,12,0.00,,,0.00,WUHU216HW,2013-03-18 23:32:00,
2013-03-18 16:42:00,81.0,22.8,29.92,NW,315,8.5,8.5,12,0.00,,,0.00,WUHU216HW,2013-03-18 23:42:00,
2013-03-18 16:52:00,80.5,22.3,29.92,NW,315,3.6,10.5,12,0.00,,,0.00,WUHU216HW,2013-03-18 23:52:00,
2013-03-18 17:02:00,80.3,22.1,29.92,North,0,7.6,8.5,12,0.00,,,0.00,WUHU216HW,2013-03-19 00:02:00,
2013-03-18 17:12:00,80.1,22.1,29.92,West,270,6.9,6.9,12,0.00,,,0.00,WUHU216HW,2013-03-19 00:12:00,
2013-03-18 17:22:00,79.7,23.4,29.92,West,270,3.8,5.8,13,0.00,,,0.00,WUHU216HW,2013-03-19 00:22:00,
2013-03-18 17:32:00,79.6,23.2,29.92,WNW,293,4.0,5.8,13,0.00,,,0.00,WUHU216HW,2013-03-19 00:32:00,
2013-03-18 17:42:00,79.0,22.8,29.92,NW,315,0.9,4.7,13,0.00,,,0.00,WUHU216HW,2013-03-19 00:42:00,
2013-03-18 17:52:00,78.8,22.7,29.92,NW,315,4.7,4.7,13,0.00,,,0.00,WUHU216HW,2013-03-19 00:52:00,
2013-03-18 18:02:00,78.5,22.4,29.92,NNW,338,3.8,5.4,13,0.00,,,0.00,WUHU216HW,2013-03-19 01:02:00,
2013-03-18 18:12:00,78.1,22.2,29.93,North,0,3.4,5.4,13,0.00,,,0.00,WUHU216HW,2013-03-19 01:12:00,
2013-03-18 18:22:00,77.8,25.2,29.93,WNW,293,3.4,6.9,15,0.00,,,0.00,WUHU216HW,2013-03-19 01:22:00,
2013-03-18 18:33:00,77.0,24.7,29.93,NNW,338,1.8,5.6,15,0.00,,,0.00,WUHU216HW,2013-03-19 01:33:00,
2013-03-18 18:43:00,76.5,24.2,29.93,NNW,338,2.0,4.0,15,0.00,,,0.00,WUHU216HW,2013-03-19 01:43:00,
2013-03-18 18:53:00,75.8,23.7,29.93,NW,315,0.9,2.9,15,0.00,,,0.00,WUHU216HW,2013-03-19 01:53:00,
2013-03-18 19:03:00,75.2,23.2,29.93,NW,315,0.4,2.7,15,0.00,,,0.00,WUHU216HW,2013-03-19 02:03:00,
2013-03-18 19:13:00,74.5,24.3,29.93,WNW,293,0.0,0.7,16,0.00,,,0.00,WUHU216HW,2013-03-19 02:13:00,
2013-03-18 19:23:00,73.3,23.3,29.93,WNW,293,0.0,0.0,16,0.00,,,0.00,WUHU216HW,2013-03-19 02:23:00,
2013-03-18 19:33:00,71.8,23.8,29.94,WSW,248,0.0,1.1,17,0.00,,,0.00,WUHU216HW,2013-03-19 02:33:00,
2013-03-18 19:43:00,70.7,24.5,29.94,West,270,0.0,0.0,18,0.00,,,0.00,WUHU216HW,2013-03-19 02:43:00,
2013-03-18 19:53:00,69.5,25.1,29.94,SE,135,0.2,0.2,19,0.00,,,0.00,WUHU216HW,2013-03-19 02:53:00,
2013-03-18 20:03:00,68.8,26.1,29.95,ESE,113,1.1,1.1,20,0.00,,,0.00,WUHU216HW,2013-03-19 03:03:00,
2013-03-18 20:13:00,68.0,26.6,29.95,East,90,0.2,1.1,21,0.00,,,0.00,WUHU216HW,2013-03-19 03:13:00,
2013-03-18 20:23:00,67.3,26.9,29.95,ESE,113,0.0,0.7,22,0.00,,,0.00,WUHU216HW,2013-03-19 03:23:00,
2013-03-18 20:33:00,66.6,26.3,29.95,SE,135,1.3,1.6,22,0.00,,,0.00,WUHU216HW,2013-03-19 03:33:00,
2013-03-18 20:43:00,65.9,25.7,29.95,ESE,113,0.9,1.8,22,0.00,,,0.00,WUHU216HW,2013-03-19 03:43:00,
2013-03-18 20:53:00,65.5,25.4,29.96,ESE,113,1.6,1.6,22,0.00,,,0.00,WUHU216HW,2013-03-19 03:53:00,
2013-03-18 21:03:00,65.0,25.9,29.95,ESE,113,0.7,1.3,23,0.00,,,0.00,WUHU216HW,2013-03-19 04:03:00,
2013-03-18 21:14:00,64.4,25.5,29.96,ESE,113,0.9,1.3,23,0.00,,,0.00,WUHU216HW,2013-03-19 04:14:00,
2013-03-18 21:24:00,64.1,26.2,29.96,East,90,1.8,1.8,24,0.00,,,0.00,WUHU216HW,2013-03-19 04:24:00,
2013-03-18 21:34:00,63.9,26.0,29.97,ESE,113,0.9,2.0,24,0.00,,,0.00,WUHU216HW,2013-03-19 04:34:00,
2013-03-18 21:44:00,63.5,25.8,29.98,SE,135,1.6,1.8,24,0.00,,,0.00,WUHU216HW,2013-03-19 04:44:00,
2013-03-18 21:54:00,63.2,25.4,29.98,SE,135,2.5,2.5,24,0.00,,,0.00,WUHU216HW,2013-03-19 04:54:00,
2013-03-18 22:04:00,62.6,24.9,29.98,ESE,113,0.7,1.1,24,0.00,,,0.00,WUHU216HW,2013-03-19 05:04:00,
2013-03-18 22:14:00,62.1,25.5,29.98,NNE,23,0.0,1.8,25,0.00,,,0.00,WUHU216HW,2013-03-19 05:14:00,
2013-03-18 22:26:00,61.2,24.7,29.98,SW,225,0.0,0.9,25,0.00,,,0.00,WUHU216HW,2013-03-19 05:26:00,
2013-03-18 22:36:00,60.5,25.0,29.98,SE,135,1.1,1.3,26,0.00,,,0.00,WUHU216HW,2013-03-19 05:36:00,
2013-03-18 22:46:00,60.3,25.8,29.98,NE,45,0.0,0.7,27,0.00,,,0.00,WUHU216HW,2013-03-19 05:46:00,
2013-03-18 22:56:00,59.8,25.4,29.98,ENE,68,0.0,0.0,27,0.00,,,0.00,WUHU216HW,2013-03-19 05:56:00,
2013-03-18 23:06:00,59.4,26.1,29.98,NE,45,0.0,0.9,28,0.00,,,0.00,WUHU216HW,2013-03-19 06:06:00,
2013-03-18 23:16:00,59.0,25.7,29.98,SE,135,1.3,1.3,28,0.00,,,0.00,WUHU216HW,2013-03-19 06:16:00,
2013-03-18 23:26:00,59.0,25.7,29.98,ESE,113,0.9,1.6,28,0.00,,,0.00,WUHU216HW,2013-03-19 06:26:00,
2013-03-18 23:36:00,58.9,25.7,29.98,SSE,158,1.1,1.1,28,0.00,,,0.00,WUHU216HW,2013-03-19 06:36:00,
2013-03-18 23:47:00,58.9,25.7,29.98,SSE,158,1.1,1.1,28,0.00,,,0.00,WUHU216HW,2013-03-19 06:47:00,
2013-03-18 23:57:00,58.7,25.5,29.98,ESE,113,0.9,1.6,28,0.00,,,0.00,WUHU216HW,2013-03-19 06:57:00,